Regional Weather Roundup
Issued by NWS Northern Indiana

Home | Current Version | Previous Version | Text Only | Print | Product List | Glossary Off
Versions: 1 2 3 4 5 6 7 8 9 10 11 12 13 14 15 16 17 18 19 20 21 22 23 24 25 26 27 28 29 30 31 32 33 34 35 36 37 38 39 40 41 42 43 44 45 46 47 48 49 50

000
ASUS43 KIWX 250600
RWRIWX

KIWX WEATHER ROUNDUP
NATIONAL WEATHER SERVICE NORTHERN INDIANA
200 AM EDT SUN JUN 25 2017

NOTE: "FAIR" INDICATES FEW OR NO CLOUDS BELOW 12,000 FEET WITH NO
SIGNIFICANT WEATHER AND/OR OBSTRUCTIONS TO VISIBILITY.

* THESE STATIONS ARE NOT UNDER NWS QUALITY CONTROL. THEY ALSO MAY NOT
  REPORT WEATHER SUCH AS PRECIPITATION OR FOG.

INZ001>027-250700-
NORTHERN INDIANA

CITY           SKY/WX    TMP DP  RH WIND       PRES   REMARKS
MICHIGAN CITY* MOCLDY    55  50  82 CALM      30.06S
KNOX*          MOCLDY    55  37  50 SW5       30.06F
SOUTH BEND     PTCLDY    57  49  74 SW6       30.06F
6HR MIN TEMP:  57; 6HR MAX TEMP:  69;

GOSHEN         PTCLDY    56  47  71 SW7       30.05F
6HR MIN TEMP:  56; 6HR MAX TEMP:  71;

MONTICELLO*    CLEAR     57  49  76 SW7       30.08F
6HR MIN TEMP:  56; 6HR MAX TEMP:  71;

FORT WAYNE     PTCLDY    57  50  77 W5        30.08F
6HR MIN TEMP:  57; 6HR MAX TEMP:  72;

PERU/GRISSOM   CLEAR     55  51  87 SW9       30.08F
6HR MIN TEMP:  54; 6HR MAX TEMP:  71;


$$
INZ028>050-250700-
CENTRAL INDIANA

CITY           SKY/WX    TMP DP  RH WIND       PRES   REMARKS
LAFAYETTE      CLEAR     53  52  96 CALM      30.10F
6HR MIN TEMP:  52; 6HR MAX TEMP:  70;

KOKOMO*        CLEAR     57  49  74 SW7       30.11F
6HR MIN TEMP:  57; 6HR MAX TEMP:  71;

MUNCIE*        CLEAR     61  48  62 W8        30.10F
6HR MIN TEMP:  61; 6HR MAX TEMP:  73;

INDIANAPOLIS   CLEAR     59  48  67 SW6       30.12F
6HR MIN TEMP:  59; 6HR MAX TEMP:  72;


$$
MIZ043>046-050>051-056>058-064>065-071>073-077>080-250700-
SOUTHWEST LOWER MICHIGAN

CITY           SKY/WX    TMP DP  RH WIND       PRES   REMARKS
BATTLE CREEK   MOCLDY    56  51  84 SW7       30.03S
6HR MIN TEMP:  55; 6HR MAX TEMP:  69;

BENTON HARBOR  CLOUDY    63  49  60 W12       30.03S
6HR MIN TEMP:  62; 6HR MAX TEMP:  69;

COLDWATER*     MOCLDY    57  50  78 SW5       30.03F
6HR MIN TEMP:  56; 6HR MAX TEMP:  69;

HILLSDALE*     CLEAR     55  46  71 SW3       30.03F
HOLLAND        MOCLDY    61  50  67 W12       30.01R
6HR MIN TEMP:  56; 6HR MAX TEMP:  66;

GRAND RAPIDS   CLOUDY    58  52  80 SW7       29.99S
6HR MIN TEMP:  58; 6HR MAX TEMP:  69;

KALAMAZOO      PTCLDY    58  50  75 SW7       30.02F
6HR MIN TEMP:  56; 6HR MAX TEMP:  69;

STURGIS*       PTCLDY    55  50  83 S3        30.03F
6HR MIN TEMP:  55; 6HR MAX TEMP:  68;

THREE RIVERS*  FAIR      56  50  79 SW5       30.04S
6HR MIN TEMP:  56; 6HR MAX TEMP:  69;


$$
OHZ001>008-015>018-024>025-250700-
NORTHWEST OHIO

CITY           SKY/WX    TMP DP  RH WIND       PRES   REMARKS
DEFIANCE       MOCLDY    61  50  67 VRB5      30.06S
6HR MIN TEMP:  59; 6HR MAX TEMP:  70;

FINDLAY        CLOUDY    63  52  67 W3        30.04S
6HR MIN TEMP:  63; 6HR MAX TEMP:  74; 6HR PCP: TRACE;

TOLEDO EXPRESS CLEAR     57  51  80 W6        30.03S
6HR MIN TEMP:  56; 6HR MAX TEMP:  72;

TOLEDO METCALF CLEAR     61  52  72 SW6       30.03F
6HR MIN TEMP:  61; 6HR MAX TEMP:  74;

LIMA           CLEAR     63  49  60 W12       30.06S
6HR MIN TEMP:  63; 6HR MAX TEMP:  71;


$$
AND FOR LAKE MICHIGAN COASTAL AND OPEN LAKE BUOY OBSERVATIONS

STATION/POSITION TEMP    WIND        PRES    VSBY  WAVE
                 AIR SEA DIR/SP/G                  HT/PER
                 (F)     (DEG/KT/KT) (MB)    (MI)  (FT/S)
CALUMET HARBOR    64     200/  4/  5 1017.2S
MICHIGAN CITY     64     300/  5/  5   N/A
BURNS HARBOR      65     230/ 12/ 14 1018.3S
SOUTH LAKE BUOY   61 62  290/ 14/ 16 1016.0          3/ 4
4 MI NW BRIDGMAN  64 68  300/  8/ 12 1017.0F         3/ 4
MICHIGAN CITY     65 67  280/  4/  6   N/A           2/ 4

$$
&&




USA.gov is the U.S. government's official web portal to all federal, state and local government web resources and services.